Location: Gand�
(15.0971°N, 12.6564°W)
Time: 14:56:10
(UTC+00:00)

PSLV R/B - Pass Details

Date: 07 August 2020
Orbit: 594 x 629 km, 97.9° (Epoch: 19 September)

Event Time Altitude Azimuth Distance (km) Brightness Sun altitude
Rises 04:52:47 0° 0° (N) 2,905 7.3 -23.8°
Reaches altitude 10° 04:55:05 10° 353° (N) 1,995 6.4 -23.3°
Enters shadow 04:58:06 35° 319° (NW) 1,016 4.5 -22.6°
